Location: Rowland
(34.5359°N, 79.2929°W)
Time: 17:06:34
(UTC+00:00)

SR - Pass Details

Date: 08 October 2022
Orbit: 577 x 874 km, 66.7° (Epoch: 05 December)

Event Time Altitude Azimuth Distance (km) Brightness Sun altitude
Rises 11:10:43 0° 317° (NW) 3,209 ? -2.2°
Reaches altitude 10° 11:13:45 10° 300° (WNW) 2,219 ? -1.5°
Maximum altitude 11:17:17 19° 255° (WSW) 1,600 ? -0.8°
Drops below altitude 10° 11:20:38 10° 210° (SSW) 2,072 ? -0.1°
Sets 11:23:22 0° 192° (SSW) 2,927 ? 0.4°
